Theta_e
293 293 292 291 290 288 288 287 287 287 286 286 286 285 285 284 284 283 282 281 281 281
291 290 289 289 288 287 288 289 287 287 286 286 285 285 284 283 282 282 281 281 281 280
289 289 288 287 287 286 286 287 286 286 285 285 284 284 283 283 282 281 281 282 280 280
288 288 288 287 286 286 286 285 285 285 285 284 283 283 282 281 281 281 280 281 280 280
287 287 286 286 286 285 284 284 284 283 283 282 281 281 280 280 280 280 280 280 280 279
285 285 285 284 284 284 283 283 282 282 281 281 280 280 280 280 279 279 279 279 279 278
285 285 284 284 283 283 282 281 280 280 280 280 279 279 279 279 279 278 279 279 279 278
284 284 284 283 282 281 281 280 280 279 279 279 279 279 279 279 278 278 278 278 279 279
284 283 282 281 281 280 280 279 278 278 278 277 279 282 283 281 278 278 278 277 277 277
282 281 281 281 280 279 279 278 278 277 277 277 277 282 283 283 279 278 277 277 277 277
281 281 280 280 279 279 278 278 277 277 277 276 277 282 283 283 279 277 276 276 276 276
281 280 279 279 278 278 278 278 278 278 277 277 277 282 283 282 278 277 276 277 276 276
280 280 279 279 278 278 278 279 278 279 278 278 277 280 282 281 278 276 276 276 277 278
280 279 279 278 276 275 276 277 275 276 277 276 276 276 281 282 279 276 275 275 275 276
Wind_Speed
8 6 5 7 6 6 5 5 5 6 5 5 6 5 5 3 4 5 4 4 4 2
7 8 7 7 7 5 6 6 6 6 6 5 6 5 5 4 4 3 2 2 2 1
8 8 8 6 7 7 6 6 6 5 6 5 5 4 4 2 1 2 1 1 2 2
8 8 8 6 6 6 6 6 5 6 5 5 4 3 2 1 2 0 1 2 2 4
9 8 7 7 6 6 6 5 5 5 5 4 3 2 2 2 1 1 3 4 4 5
8 7 7 7 6 5 6 5 5 5 4 4 3 3 3 3 3 3 4 5 5 5
7 7 6 6 6 6 6 5 5 4 4 4 4 3 4 5 4 4 4 5 5 5
6 6 6 6 6 5 5 5 5 4 4 4 4 4 5 5 4 4 5 5 5 5
6 6 6 6 6 5 5 5 5 4 5 6 3 8 10 6 3 4 5 5 5 4
6 6 6 5 5 6 6 4 5 6 5 6 5 10 10 11 4 4 4 5 5 6
7 6 6 6 6 5 4 5 5 6 6 5 5 11 12 10 5 4 5 6 6 6
7 7 6 6 6 5 5 5 5 4 6 6 6 11 11 9 4 5 7 6 6 5
7 7 6 6 7 4 4 5 4 5 6 7 5 9 10 10 3 6 5 4 4 7
6 6 7 6 3 3 4 4 3 5 5 4 6 6 13 15 6 4 4 4 4 4
Wind_Direction
128 139 124 134 135 117 126 120 113 98 96 90 88 87 79 70 73 72 68 68 52 38
126 111 118 108 110 119 120 119 114 116 106 94 85 92 92 83 73 75 81 78 55 9
130 122 112 110 123 116 113 109 115 121 110 104 96 87 94 99 103 85 357 153 2 327
138 121 117 127 118 117 117 123 127 119 122 121 111 96 106 150 178 130 308 329 309 304
121 124 125 120 119 125 120 121 128 125 121 122 140 166 179 236 286 285 288 279 276 275
133 130 127 129 130 131 133 135 125 128 147 168 188 206 234 242 256 258 257 271 269 276
140 139 140 131 143 145 147 142 151 166 178 194 210 219 235 237 254 279 285 289 275 274
140 134 136 148 155 150 146 163 172 181 202 218 219 225 235 231 256 282 288 290 286 276
146 142 159 164 163 154 169 185 184 203 218 230 234 239 236 240 254 264 273 285 288 283
159 171 173 168 168 180 191 187 208 223 228 237 235 247 252 247 233 244 261 275 290 295
171 176 177 181 188 193 189 206 215 226 230 237 244 248 249 247 226 253 264 265 262 260
176 184 182 188 196 201 202 215 217 216 225 227 230 245 255 261 214 249 260 266 262 269
182 184 185 195 207 202 197 219 216 226 226 233 234 248 262 258 225 248 266 270 273 274
181 182 195 199 182 183 206 218 210 230 239 238 245 249 258 255 249 238 249 252 258 269